NOAA 16 DEB, 41198

Orbit data source: Space-Track

NOAA 16 DEB, 41198 is space debris in SSO originally from a launch on Thu, 21 Sep 2000 UTC launched from the Air Force Western Test Range (AFWTR). Debris objects in space refer to the collection of defunct objects orbiting the Earth. Examples of debris include non-operational satellites, rocket bodies, and fragments generated from explosions, collisions, or faulty payload assembly.

Loading next visibility...
Identifier
41198, 2000-055DB
Orbit
SSO
Last TLE update
2 days ago
Origin
Manufacturer
Unknown
Mission
Spacecraft
Bus & Motor
Unknown
Mass
Unknown
Launch date (UTC)
2000-09-21 (25 years ago)
Launch vehicle
Unknown
Launch site
Air Force Western Test Range (AFWTR)
Object type
Payload
Rocket body
Debris
Shape & HBR
Unknown
Radar Cross Section
Small (<0.1 m²)

Expand to show TLE details & history

TLE from 2 days ago
0 NOAA 16 DEB
1 41198U 00055DB  25187.71028873  .00007636  00000-0  26321-2 0  9990
2 41198  98.9175 283.8010 0027605 104.4118 256.0133 14.35964652492038
Epoch: 2025-07-06T17:02Z
TLE epoch observation values (Epoch: 2025-07-06T17:02:48.946Z)
Latitude
-0.00002°
Longitude
103.16699°
Altitude
779.615 km
Speed
7.462 km/s
True Right ascension
18h 55m 12s
True Declination
0° 00' 00"
Sunlit
Object was in full shadow at epoch
Visualization orbit readout
Latitude
75.56788°
Longitude
67.50663°
Altitude
766.215 km
Speed
7.487 km/s
Apparent Right ascension
09h 18m 56s
Apparent Declination
35° 01' 24"
Sunlit
Object is in daylight
Visualization observer readout
Local Sidereal Time
19:57:59
Azimuth
343.117° N
Elevation
-12.772°
Doppler factor
1
Orbital elements
Apogee altitude
788.74 km
Perigee altitude
749.28 km
Semi-major axis
7,147.147 km
Eccentricity
0.00276
Inclination
98.9175°
RAAN
283.801°
Arg. of periapsis
104.4118°
True anomaly
Unknown
Mean anomaly
256.0133°
Eccentric anomaly
Unknown
Mean motion
3.59206 °/min
Orbital period
100.22 mins
BSTAR
0.0026321
Loading maneuver chart data...
Loading SW <> Apogee altitude chart data...
Loading historical data...
Loading historical data...
Loading historical data...
Loading historical data...
Loading historical data...
Loading historical data...
Loading historical data...

NOAA 16 DEB Visibility forecast

Observer location: undefined°, undefined°

Span
Click to sort rows by Start time (UTC) header in descending order
Start Az.
Max El. time (UTC)
Max El. Az.
Max El.
End time (UTC)
End Az.
5 mins2025-07-08 18:09:22.234Z59.333° ENE2025-07-08 18:12:22.234Z99.875° ESE16.225°2025-07-08 18:14:22.234Z125.87° SE
7 mins2025-07-08 19:48:22.234Z354.653° N2025-07-08 19:51:22.234Z283.124° WNW38.161°2025-07-08 19:55:22.234Z215.847° SW
6 mins2025-07-09 05:24:22.234Z109.732° ESE2025-07-09 05:27:22.234Z62.95° ENE23.012°2025-07-09 05:30:22.234Z18.949° NNE
7 mins2025-07-09 07:03:22.234Z208.274° SW2025-07-09 07:06:22.234Z269.298° W30.726°2025-07-09 07:10:22.234Z327.014° NNW
|